CST,Max TemperatureF,Mean TemperatureF,Min TemperatureF,Max Dew PointF,MeanDew PointF,Min DewpointF,Max Humidity, Mean Humidity, Min Humidity, Max Sea Level PressureIn, Mean Sea Level PressureIn, Min Sea Level PressureIn, Max VisibilityMiles, Mean VisibilityMiles, Min VisibilityMiles, Max Wind SpeedMPH, Mean Wind SpeedMPH, Max Gust SpeedMPH,PrecipitationIn, CloudCover, Events, WindDirDegrees
2012-1-1,75,64,53,64,57,39,93,65,36,30.40,30.23,30.14,10,7,2,21,11,28,0.02,3,,262
2012-1-2,58,52,45,38,30,25,54,39,24,30.55,30.45,30.38,10,10,10,22,13,30,0.00,0,,342
2012-1-3,51,44,36,29,19,11,59,39,18,30.59,30.49,30.42,10,10,10,21,9,25,0.00,0,,345
2012-1-4,65,49,33,53,38,21,83,64,44,30.47,30.36,30.28,10,10,10,15,6,18,0.00,2,,170
2012-1-5,74,62,50,57,55,50,89,69,49,30.32,30.25,30.17,10,7,0,12,4,22,0.00,2,Fog,256
2012-1-6,74,63,52,62,56,52,96,75,53,30.18,30.13,30.06,10,6,0,14,6,16,T,3,Fog,201
2012-1-7,75,66,56,62,58,56,93,73,53,30.12,30.08,30.04,10,8,2,16,6,20,0.00,3,,174
2012-1-8,79,71,63,66,63,59,93,73,52,30.15,30.10,30.06,10,8,2,20,8,23,T,5,Rain,166
2012-1-9,76,70,64,65,63,62,93,77,60,30.11,30.05,29.96,10,9,4,16,7,21,T,4,,126
2012-1-10,74,64,54,70,62,48,90,76,61,29.96,29.84,29.75,10,8,4,23,12,28,0.01,7,Rain,161
2012-1-11,67,58,49,51,47,44,80,61,42,29.85,29.79,29.76,10,10,9,23,10,31,0.00,1,,257
2012-1-12,60,51,42,58,42,23,89,57,24,30.20,29.94,29.76,10,10,10,28,15,36,0.00,2,,291
2012-1-13,51,44,37,28,20,16,48,37,26,30.34,30.27,30.21,10,10,10,18,7,25,0.00,0,,306
2012-1-14,65,49,32,43,31,24,64,41,18,30.43,30.36,30.32,10,10,9,16,6,24,0.00,0,,265
2012-1-15,66,52,37,48,41,35,85,60,34,30.48,30.40,30.37,10,10,7,12,4,15,0.00,0,,152
2012-1-16,74,64,54,61,56,49,84,71,57,30.35,30.27,30.16,10,10,8,23,12,33,0.00,6,,152
2012-1-17,78,71,63,67,63,59,93,79,64,30.18,30.10,30.03,10,8,1,24,11,29,0.28,7,Rain,204
2012-1-18,65,55,44,61,44,37,80,57,33,30.26,30.15,30.09,10,10,10,21,9,26,0.00,2,,342
2012-1-19,73,57,41,67,54,40,93,75,57,30.16,30.05,29.99,10,10,7,15,6,21,0.00,4,,142
2012-1-20,81,74,67,70,67,60,93,74,54,30.03,29.98,29.94,10,9,6,28,12,38,T,6,,201
2012-1-21,81,75,68,70,67,65,97,78,58,30.03,29.97,29.92,10,8,4,18,9,22,0.01,5,Rain,219
2012-1-22,81,74,66,72,70,66,97,82,67,30.01,29.96,29.92,10,6,1,23,12,30,T,8,Rain,175
2012-1-23,79,71,62,72,67,58,93,66,39,30.05,29.99,29.94,10,7,3,18,9,25,0.16,6,Rain,239
2012-1-24,67,64,60,63,52,44,87,70,52,30.14,30.09,30.04,10,10,7,16,10,20,0.01,5,Rain,81
2012-1-25,79,72,65,70,68,64,93,80,67,30.06,29.98,29.89,10,7,0,24,14,31,0.00,7,Fog,135
2012-1-26,73,65,57,72,61,49,93,75,56,29.97,29.86,29.80,10,8,0,22,12,28,1.32,6,Rain,249
2012-1-27,64,56,48,48,43,37,86,59,32,30.15,30.06,29.96,10,10,10,20,7,24,0.00,2,,292
2012-1-28,70,57,44,54,47,37,89,66,43,30.34,30.23,30.12,10,10,8,20,8,25,0.00,0,,319
2012-1-29,61,54,46,39,33,27,65,46,26,30.48,30.40,30.35,10,10,10,17,7,26,0.00,0,,55
2012-1-30,68,56,43,54,46,37,77,60,42,30.40,30.33,30.27,10,10,10,16,5,23,0.00,0,,92
2012-1-31,77,69,60,64,60,54,93,75,56,30.29,30.22,30.16,10,9,6,13,8,59,0.00,5,,126